Flag for Argentina Weather past 2 weeks in Salta, Salta, Argentina

Now
77 °F

Passing clouds.


Feels Like: 78 °F
Forecast: 46 / 74 °F
Wind: 5 mph from North

Location: Salta Aerodrome

Current Time: Aug 3, 2015 at 1:14:39 PM

Latest Report: Aug 3, 2015 at 1:00 PM


Visibility: N/A

Pressure: 30.01 "Hg (26.20 "Hg at 1184m altitude)

Humidity: 44%

Dew point: 54 °F

Location of SaltaLocation

Historic Weather in Salta — Graph

°F

Salta temperature yesterday

Maximum temperature yesterday: 86 °F (at 4:00 PM)
Minimum temperature yesterday: 45 °F (at 5:00 AM)
Average temperature yesterday: 62 °F

Past Weeks' High & Low Weather Summary

 TemperatureHumidityPressure
High88 °F (Jul 28, 5:00 PM)100% (Jul 21, 9:00 AM)30.39 "Hg (Jul 21, 9:00 AM)
Low34 °F (Jul 22, 9:00 AM)13% (Jul 28, 5:00 PM)29.74 "Hg (Aug 2, 4:00 PM)
Average55 °F69%30.05 "Hg
* Reported Jul 19 11:00 AM — Aug 3 11:00 AM, Salta, Weather by CustomWeather, © 2015

Note: Actual official high and low records may vary slightly from our data, if they occured in-between our weather recording intervals... More about our weather records

Advertising

Salta weather history for previous 24 hours

 ConditionsComfort  
Time TempWeatherWind HumidityBarometerVisibility
11:00 AM
Mon, Aug 3
68 °FPassing clouds.No wind53%30.04 "HgN/A
10:00 AM61 °FSunny.No wind72%30.04 "Hg10 mi
9:00 AM52 °FPassing clouds.No wind88%30.04 "HgN/A
8:00 AM50 °FSunny.2 mph88%30.01 "Hg10 mi
6:00 AM50 °FClear.No wind82%29.95 "Hg10 mi
5:00 AM52 °FClear.3 mph77%29.95 "Hg10 mi
4:00 AM55 °FClear.7 mph63%29.95 "Hg10 mi
3:00 AM54 °FClear.6 mph67%29.95 "Hg10 mi
2:00 AM55 °FClear.1 mph72%29.95 "Hg10 mi
1:00 AM55 °FClear.2 mph77%29.95 "Hg10 mi
12:00 AM55 °FClear.2 mph77%29.95 "Hg10 mi
11:00 PM
Sun, Aug 2
57 °FClear.No wind72%29.92 "Hg10 mi
10:00 PM61 °FClear.2 mph63%29.92 "Hg10 mi
9:00 PM66 °FClear.6 mph52%29.89 "Hg10 mi
8:00 PM72 °FClear.9 mph47%29.86 "Hg10 mi
7:00 PM75 °FClear.5 mph36%29.80 "Hg10 mi
6:00 PM84 °FClear.8 mph20%29.80 "Hg10 mi
5:00 PM86 °FSunny.10 mph15%29.77 "Hg10 mi
4:00 PM86 °FSunny.8 mph20%29.74 "Hg10 mi
3:00 PM84 °FSunny.8 mph20%29.77 "Hg10 mi
2:00 PM81 °FSunny.3 mph26%29.80 "Hg10 mi
1:00 PM73 °FSunny.2 mph38%29.83 "Hg10 mi
Weather by CustomWeather, © 2015

See weather overviewHow to use our weather pages